Location: Lecco
(45.8566°N, 9.3977°E)
Time: 04:58:37
(UTC+02:00)

Transit 4A - Pass Details

Date: 17 August 2020
Orbit: 863 x 982 km, 66.8° (Epoch: 23 September)

Event Time Altitude Azimuth Distance (km) Brightness Sun altitude
Rises 17:30:06 0° 327° (NNW) 3,658 11.3 29.5°
Reaches altitude 10° 17:32:40 10° 328° (NNW) 2,720 10.7 29.1°
Maximum altitude 17:39:04 82° 57° (ENE) 994 8.5 28.0°
Drops below altitude 10° 17:45:30 10° 145° (SE) 2,727 10.2 26.9°
Sets 17:48:03 0° 146° (SSE) 3,668 10.8 26.4°
